Weather observations for the past three days for
Pawtucket, North Central State Airport
Imperial (Metric)
Date Time (edt) Wind (mph) Vis. (mi.) Weather Sky Cond. Temperature (ºF) Relative Humidity Wind Chill (°F) Heat Index (°F) Pressure Precipitation (in)
Air Dwpt 6 hour altimeter (in) sea level (mb) 1 hr 3 hr 6 hr
Max. Min.
15 23:56 NE 3 10.00 Fair CLR 54 48 80% 30.15 1020.8
15 22:56 NE 3 10.00 Fair CLR 57 48 72% 30.11 1019.6
15 21:56 NE 5 10.00 Fair CLR 60.1 46 60% 30.09 1018.8
15 20:56 N 5 10.00 Fair CLR 62.1 46.9 58% 30.07 1018.1
15 19:56 N 3 10.00 Fair CLR 66.9 46 75 66.9 47% 30.04 1017.1
15 18:56 N 7 0.00 Fair CLR 71.1 45 39% 30.02 1016.4
15 17:56 NW 10 0.00 Fair CLR 73 46 38% 30.01 1015.9
15 16:56 NW 13 G 17 0.00 A Few Clouds FEW065 73.9 50 43% 29.99 1015.3
15 15:56 N 13 G 18 0.00 Fair CLR 75 48.9 40% 77 29.98 1014.7
15 14:56 N 9 10.00 Fair CLR 73.9 46.9 38% 29.98 1015.0
15 13:56 N 12 10.00 Fair CLR 73.9 46.9 73.9 66 38% 29.98 1014.7
15 12:56 NW 12 10.00 A Few Clouds FEW055 73 53.1 50% 29.97 1014.4
15 11:56 N 7 10.00 Mostly Cloudy SCT040 BKN049 BKN055 70 55 59% 29.96 1014.1
15 10:56 N 7 G 16 10.00 Partly Cloudy SCT032 72 59 64% 29.95 1013.9
15 09:56 N 13 G 16 10.00 A Few Clouds FEW026 71.1 61 71% 29.94 1013.5
15 08:56 N 9 10.00 A Few Clouds FEW075 69.1 61 76% 29.95 1013.8
15 07:56 N 12 10.00 Fair CLR 66 60.1 66 61 81% 29.92 1013.0
15 06:56 N 9 10.00 Fair CLR 64 61 90% 29.91 1012.6
15 05:56 N 7 10.00 Overcast OVC120 62.1 62.1 100% 29.89 1011.8
15 04:56 NW 5 10.00 Mostly Cloudy BKN100 62.1 62.1 100% 29.88 1011.5
15 03:56 W 3 10.00 Overcast OVC090 62.1 62.1 100% 29.86 1010.8
15 02:56 Calm 8.00 Overcast OVC090 62.1 62.1 100% 29.85 1010.5
15 01:56 Calm 10.00 Overcast SCT065 OVC100 63 63 66.9 63 100% 29.86 1010.7 0.08
15 00:56 NW 8 G 16 10.00 Overcast FEW005 BKN014 OVC110 64.9 64.9 100% 29.87 1011.1 0.02
14 23:56 Calm 4.00 Light Rain Fog/Mist SCT007 BKN048 OVC070 66.9 66.9 100% 29.88 1011.4 0.06
14 22:56 SW 3 5.00 Fog/Mist BKN070 BKN110 66.9 66.9 100% 29.87 1011.2
14 21:56 Vrbl 3 5.00 Fog/Mist BKN065 66.9 66.9 100% 29.87 1011.3
14 20:56 Calm 4.00 Fog/Mist BKN090 66 66 100% 29.87 1011.2
14 19:56 Vrbl 3 10.00 Fair CLR 64.9 64.9 81 64.9 100% 29.86 1011.0 0.01 0.2
14 18:56 Calm 10.00 Light Rain SCT055 BKN080 OVC110 66 66 100% 29.87 1011.1 0.19
14 17:56 NW 10 G 18 10.00 Thunderstorm in Vicinity Light Rain FEW029 BKN048 OVC080 73.9 64 71% 29.86 1011.0
14 16:56 Vrbl 5 0.00 Thunderstorm in Vicinity SCT036 BKN080 77 69.1 77% 79 29.85 1010.4
14 15:56 SW 7 0.00 A Few Clouds FEW026 80.1 70 71% 83 29.84 1010.3
14 14:56 Vrbl 3 0.00 Fair CLR 78.1 69.1 74% 80 29.85 1010.7
14 13:56 W 6 0.00 A Few Clouds FEW100 78.1 68 82 70 71% 80 29.87 1011.2
14 12:56 SW 10 G 16 0.00 Mostly Cloudy FEW036 BKN065 82 68 63% 85 29.88 1011.4
14 11:56 Vrbl 6 0.00 Fair CLR 81 68 65% 84 29.89 1011.8
14 10:56 Vrbl 7 0.00 Fair CLR 78.1 66 67% 80 29.9 1012.1
14 09:56 S 8 10.00 Fair CLR 75 64.9 71% 77 29.9 1012.2
14 08:56 Vrbl 7 10.00 Overcast OVC048 72 63 73% 29.91 1012.7
14 07:56 Vrbl 6 10.00 Fair CLR 70 62.1 70 64 76% 29.91 1012.6
14 06:56 Vrbl 5 10.00 Fair CLR 66.9 61 81% 29.91 1012.6
14 05:56 SW 6 10.00 Fair CLR 64.9 61 87% 29.92 1012.9
14 04:56 Vrbl 6 10.00 Fair CLR 64 60.1 87% 29.91 1012.5
14 03:56 Vrbl 5 10.00 Fair CLR 64.9 60.1 84% 29.9 1012.4
14 02:56 Vrbl 6 10.00 Fair CLR 64.9 60.1 84% 29.92 1012.8
14 01:56 Vrbl 5 10.00 Fair CLR 64.9 60.1 73 64.9 84% 29.94 1013.5
14 00:56 Vrbl 6 10.00 Fair CLR 64.9 60.1 84% 29.95 1013.9
13 23:56 Vrbl 6 10.00 Fair CLR 64.9 60.1 84% 29.97 1014.5
13 22:56 SW 8 10.00 Fair CLR 66.9 60.1 79% 29.97 1014.6
13 21:56 Vrbl 3 10.00 Fair CLR 68 60.1 76% 29.98 1015.0
13 20:56 SW 6 10.00 Fair CLR 70 60.1 71% 29.98 1014.9
13 19:56 Vrbl 6 10.00 Fair CLR 73 61 82.9 73 66% 29.98 1015.2
13 18:56 Vrbl 7 G 16 0.00 Fair CLR 75.9 61 60% 78 29.97 1014.6
13 17:56 SW 8 G 18 0.00 Fair CLR 78.1 61 56% 80 29.96 1014.3
13 16:56 SW 8 0.00 A Few Clouds FEW065 79 62.1 56% 80 29.96 1014.2
13 15:56 SW 6 0.00 Mostly Cloudy BKN065 79 61 54% 80 29.97 1014.5
13 14:56 W 7 0.00 Mostly Cloudy BKN060 81 57 44% 81 29.98 1014.9
13 13:56 Vrbl 3 0.00 A Few Clouds FEW055 79 55.9 81 66 45% 80 29.99 1015.2
13 12:56 Vrbl 3 0.00 Fair CLR 79 55 44% 80 30 1015.6
13 11:56 W 7 0.00 Fair CLR 78.1 55 45% 79 30.01 1016.2
13 10:56 SW 7 0.00 Fair CLR 75.9 57 52% 78 30.02 1016.5
13 09:56 Vrbl 3 0.00 Fair CLR 73 57.9 59% 30.04 1016.7
13 08:56 W 5 10.00 Fair CLR 69.1 57.9 68% 30.04 1016.9
13 07:56 Calm 10.00 Fair CLR 66 59 66 53.1 78% 30.04 1016.9
13 06:56 Calm 10.00 Fair CLR 60.1 57.9 93% 30.04 1017.0
13 05:56 Calm 10.00 Fair CLR 54 54 100% 30.03 1016.8
13 04:56 SW 3 10.00 Fair CLR 54 54 100% 30.01 1016.2
13 03:56 SW 3 10.00 Fair CLR 55 55 100% 30 1015.7
13 02:56 SW 3 10.00 Fair CLR 55 55 100% 30.01 1016.0
13 01:56 Calm 10.00 Fair CLR 55 55 70 55 100% 30 1015.7
13 00:56 W 6 10.00 Fair CLR 59 55.9 90% 30.01 1015.9
Date Time (edt) Wind (mph) Vis. (mi.) Weather Sky Cond. Air Dwpt Max. Min. Relative Humidity Wind Chill (°F) Heat Index (°F) altimeter (in) sea level (mb) 1 hr 3 hr 6 hr
6 hour
Temperature (ºF) Pressure Precipitation (in)